EW5586 Weather Reports


time (UTC)temp
C
wind
direction
speed
KPH
gust
KPH
rain 1hr
cm
rain 24hr
cm
rain mn
cm
humidity
%
barometer
mb
20260509011443 8 195 9.7 16.1 0.00 0.00 0.00 65 1010.2
20260509010937 8 176 9.7 16.1 0.00 0.00 0.00 61 1010.2
20260509010431 8 209 9.7 16.1 0.00 0.00 0.00 60 1010.2
20260509005925 8 221 9.7 16.1 0.00 0.00 0.00 58 1010.0
20260509005419 8 204 9.7 17.7 0.00 0.00 0.00 58 1010.0
20260509004913 9 228 9.7 17.7 0.00 0.00 0.00 57 1010.0
20260509004407 9 229 9.7 17.7 0.00 0.00 0.00 56 1009.9
20260509003901 9 237 11.3 17.7 0.00 0.00 0.00 55 1009.9
20260509002849 9 0 9.7 17.7 0.00 0.00 0.00 53 1009.8
20260509002344 9 196 9.7 17.7 0.00 0.00 0.00 53 1009.9
20260509001836 9 0 9.7 22.5 0.00 0.00 0.00 51 1009.8
20260509001331 9 214 9.7 22.5 0.00 0.00 0.00 51 1009.8
20260509000826 9 217 9.7 17.7 0.00 0.00 0.00 52 1009.8
20260509000319 9 221 11.3 19.3 0.00 0.00 0.00 51 1009.7
20260508235813 9 237 11.3 19.3 0.00 0.00 0.00 51 1009.7
20260508235307 9 0 9.7 22.5 0.00 0.00 0.00 52 1009.5
20260508234801 9 248 8.0 22.5 0.00 0.00 0.00 53 1009.5
20260508234256 9 221 11.3 20.9 0.00 0.00 0.00 56 1009.5
20260508233749 9 242 16.1 25.7 0.00 0.00 0.00 57 1009.5
20260508233243 9 238 17.7 33.8 0.00 0.00 0.00 61 1009.5
20260508231725 9 196 19.3 30.6 0.00 0.00 0.00 56 1009.5
20260508231219 9 205 19.3 30.6 0.00 0.00 0.00 61 1009.7
20260508230719 9 210 17.7 24.1 0.00 0.00 0.00 68 1009.7
20260508230219 9 195 17.7 24.1 0.00 0.00 0.00 67 1009.7
20260508225219 9 197 17.7 25.7 0.00 0.00 0.00 65 1009.8
20260508224719 9 194 17.7 25.7 0.00 0.00 0.00 66 1009.7
20260508224219 9 217 17.7 27.4 0.00 0.00 0.00 66 1009.7
20260508223719 9 214 19.3 27.4 0.00 0.00 0.00 66 1009.9
20260508223219 9 217 19.3 25.7 0.00 0.00 0.00 66 1009.8
20260508222719 9 205 19.3 25.7 0.00 0.00 0.00 66 1009.7
20260508222220 9 0 19.3 25.7 0.00 0.00 0.00 65 1009.7
20260508221720 9 0 20.9 29.0 0.00 0.00 0.00 63 1009.5
20260508221219 10 215 20.9 29.0 0.00 0.00 0.00 59 1009.7
20260508220719 10 218 20.9 29.0 0.00 0.00 0.00 53 1009.5
20260508220222 10 198 20.9 33.8 0.00 0.00 0.00 60 1009.7
20260508215714 10 0 24.1 33.8 0.00 0.00 0.00 55 1009.7
20260508215210 10 221 24.1 33.8 0.00 0.00 0.00 50 1009.7
20260508214709 10 227 20.9 33.8 0.00 0.00 0.00 55 1009.8
20260508214210 10 215 19.3 30.6 0.00 0.00 0.00 61 1009.8
20260508213709 9 200 19.3 30.6 0.00 0.00 0.00 64 1009.8
20260508213209 9 196 19.3 29.0 0.00 0.00 0.00 60 1009.9
20260508212709 9 213 19.3 29.0 0.00 0.00 0.00 64 1009.8
20260508212210 9 217 19.3 29.0 0.00 0.00 0.00 65 1009.8
20260508210709 9 0 20.9 35.4 0.00 0.00 0.00 64 1009.8
20260508210210 10 188 24.1 37.0 0.00 0.00 0.00 55 1009.8
20260508205705 10 215 25.7 37.0 0.00 0.00 0.00 52 1009.8
20260508205205 10 200 20.9 32.2 0.00 0.00 0.00 57 1009.8
20260508204705 10 198 22.5 37.0 0.00 0.00 0.00 52 1009.9
20260508204206 9 204 24.1 37.0 0.00 0.00 0.00 59 1009.9
20260508203705 10 0 17.7 32.2 0.00 0.00 0.00 58 1010.0
20260508203205 10 204 17.7 38.6 0.00 0.00 0.00 51 1010.0
20260508202706 10 210 20.9 38.6 0.00 0.00 0.00 52 1009.9
20260508202207 10 0 17.7 37.0 0.00 0.00 0.00 59 1009.9
20260508201705 10 242 17.7 37.0 0.00 0.00 0.00 52 1009.9
20260508201201 10 185 22.5 38.6 0.00 0.00 0.00 59 1009.9
20260508200701 10 203 22.5 38.6 0.00 0.00 0.00 55 1010.0
20260508200201 10 188 22.5 37.0 0.00 0.00 0.00 59 1009.9
20260508195701 10 224 24.1 38.6 0.00 0.00 0.00 60 1009.9
20260508195202 10 205 25.7 38.6 0.00 0.00 0.00 63 1009.8
20260508193701 9 211 22.5 33.8 0.00 0.00 0.00 65 1009.9
20260508193201 9 217 22.5 30.6 0.00 0.00 0.00 67 1009.9
20260508192701 9 213 22.5 30.6 0.00 0.00 0.00 68 1009.9
20260508192201 9 204 24.1 35.4 0.00 0.00 0.00 66 1010.0
20260508191701 9 0 24.1 35.4 0.00 0.00 0.00 67 1010.0
20260508191201 9 202 24.1 32.2 0.00 0.00 0.00 66 1010.0
20260508190701 9 203 24.1 32.2 0.00 0.00 0.00 67 1010.0
20260508190202 9 205 22.5 30.6 0.00 0.00 0.00 67 1009.9
20260508185701 9 224 24.1 33.8 0.00 0.00 0.00 66 1010.0
20260508185200 9 196 25.7 33.8 0.00 0.00 0.00 67 1010.0
20260508184159 9 215 25.7 33.8 0.00 0.00 0.00 66 1010.0
20260508183659 9 220 25.7 33.8 0.00 0.00 0.00 67 1010.1
20260508183157 9 195 22.5 32.2 0.00 0.00 0.00 67 1010.1
20260508182654 8 196 22.5 33.8 0.00 0.00 0.00 69 1010.1
20260508182153 8 179 24.1 33.8 0.00 0.00 0.00 68 1010.1
20260508181651 8 219 22.5 33.8 0.00 0.00 0.00 67 1010.1
20260508181151 9 0 22.5 29.0 0.00 0.00 0.00 66 1010.1
20260508180649 9 0 20.9 27.4 0.00 0.00 0.00 65 1010.1
20260508180147 9 206 22.5 37.0 0.00 0.00 0.00 63 1010.1
20260508175646 9 197 24.1 37.0 0.00 0.00 0.00 59 1010.1
20260508175147 9 209 22.5 35.4 0.00 0.00 0.00 62 1010.1
20260508174646 8 219 22.5 33.8 0.00 0.00 0.00 66 1010.1
20260508174147 8 187 22.5 30.6 0.00 0.00 0.00 69 1010.1
20260508173645 8 210 24.1 38.6 0.00 0.00 0.00 68 1010.2
20260508172645 8 227 24.1 38.6 0.00 0.00 0.00 63 1010.1
20260508172143 8 211 20.9 38.6 0.00 0.00 0.00 66 1010.1
20260508171643 9 203 17.7 37.0 0.00 0.00 0.00 61 1010.1
20260508171143 9 204 19.3 33.8 0.00 0.00 0.00 62 1010.1
20260508170643 9 205 17.7 25.7 0.00 0.00 0.00 66 1010.0
20260508170143 9 0 16.1 25.7 0.00 0.00 0.00 65 1010.0
20260508165644 9 215 14.5 25.7 0.00 0.00 0.00 63 1010.1
20260508165143 9 186 12.9 20.9 0.00 0.00 0.00 62 1010.1
20260508164643 9 169 12.9 17.7 0.00 0.00 0.00 58 1010.1
20260508163643 9 169 14.5 20.9 0.00 0.00 0.00 59 1010.2
20260508163142 9 182 14.5 22.5 0.00 0.00 0.00 60 1010.2
20260508162643 9 192 12.9 22.5 0.00 0.00 0.00 63 1010.2
20260508162145 9 184 12.9 24.1 0.00 0.00 0.00 59 1010.2
20260508161644 10 210 12.9 24.1 0.00 0.00 0.00 57 1010.3
20260508161143 10 182 8.0 14.5 0.00 0.00 0.00 56 1010.2
20260508160143 10 0 8.0 22.5 0.00 0.00 0.00 48 1010.2
20260508155642 10 207 11.3 22.5 0.00 0.00 0.00 49 1010.2
20260508155145 10 240 6.4 22.5 0.00 0.00 0.00 53 1010.3
20260508154642 10 165 3.2 17.7 0.00 0.00 0.00 49 1010.3
20260508154136 10 226 0.0 17.7 0.00 0.00 0.00 51 1010.2
20260508153630 -17 0.0 0.0 0.00 0.00 0.00 1010.3
20260508153044 -17 0.0 0.0 0.00 0.00 0.00 1010.3
20260508152545 -17 0.0 0.0 0.00 0.00 0.00 1010.4
20260508152038 -17 0.0 0.0 0.00 0.00 0.00 1010.5
20260508151448 -17 0.0 0.0 0.00 0.00 0.00 1010.5
20260508144843 -17 0.0 0.0 0.00 0.00 0.00 1010.6
20260508143745 -17 0.0 0.0 0.00 0.00 0.00 1010.5
20260508143243 -17 0.0 0.0 0.00 0.00 0.00 1010.5
20260508142739 -17 0.0 0.0 0.00 0.00 0.00 1010.5
20260508141642 -17 0.0 0.0 0.00 0.00 0.00 1010.5
20260508141141 -17 0.0 0.0 0.00 0.00 0.00 1010.5
20260508140544 -17 0.0 0.0 0.00 0.00 0.00 1010.5
20260508135540 -17 0.0 0.0 0.00 0.00 0.00 1010.5
20260508133433 -17 0.0 0.0 0.00 0.00 0.00 1010.7
20260508132841 -17 0.0 0.0 0.00 0.00 0.00 1010.6
20260508132247 -17 0.0 0.0 0.00 0.00 0.00 1010.7
20260508130647 -17 0.0 0.0 0.00 0.00 0.00 1010.6
20260508130141 -17 0.0 0.0 0.00 0.00 0.00 1010.6
20260508125546 -17 0.0 0.0 0.00 0.00 0.00 1010.6
20260508124530 -17 0.0 0.0 0.00 0.00 0.00 1010.7
20260508123944 -17 0.0 0.0 0.00 0.00 0.00 1010.7
20260508122943 -17 0.0 0.0 0.00 0.00 0.00 1010.6
20260508122348 -17 0.0 0.0 0.00 0.00 0.00 1010.6
20260508121338 -17 0.0 0.0 0.00 0.00 0.00 1010.6
20260508120744 -17 0.0 0.0 0.00 0.00 0.00 1010.6
20260508120242 -17 0.0 0.0 0.00 0.00 0.00 1010.6
20260508115742 -17 0.0 0.0 0.00 0.00 0.00 1010.5
20260508115243 -17 0.0 0.0 0.00 0.00 0.00 1010.5
20260508114649 -17 0.0 0.0 0.00 0.00 0.00 1010.5
20260508114142 -17 0.0 0.0 0.00 0.00 0.00 1010.6
20260508113550 -17 0.0 0.0 0.00 0.00 0.00 1010.5
20260508113045 -17 0.0 0.0 0.00 0.00 0.00 1010.4
20260508112543 -17 0.0 0.0 0.00 0.00 0.00 1010.2
20260508112036 -17 0.0 0.0 0.00 0.00 0.00 1010.4
20260508110944 -17 0.0 0.0 0.00 0.00 0.00 1010.5
20260508110442 -17 0.0 0.0 0.00 0.00 0.00 1010.5
20260508105848 -17 0.0 0.0 0.00 0.00 0.00 1010.4
20260508105344 -17 0.0 0.0 0.00 0.00 0.00 1010.4
20260508104838 -17 0.0 0.0 0.00 0.00 0.00 1010.4
20260508103745 -17 0.0 0.0 0.00 0.00 0.00 1010.2
20260508102743 -17 0.0 0.0 0.00 0.00 0.00 1010.0
20260508102153 -17 0.0 0.0 0.00 0.00 0.00 1010.0
20260508101647 -17 0.0 0.0 0.00 0.00 0.00 1010.0
20260508101127 -17 0.0 0.0 0.00 0.00 0.00 1010.0
20260508100038 -17 0.0 0.0 0.00 0.00 0.00 1010.0
20260508095447 -17 0.0 0.0 0.00 0.00 0.00 1009.9
20260508094945 -17 0.0 0.0 0.00 0.00 0.00 1009.9
20260508094442 -17 0.0 0.0 0.00 0.00 0.00 1009.9
20260508093938 -17 0.0 0.0 0.00 0.00 0.00 1009.9
20260508093343 -17 0.0 0.0 0.00 0.00 0.00 1009.8
20260508092840 -17 0.0 0.0 0.00 0.00 0.00 1009.9
20260508092332 -17 0.0 0.0 0.00 0.00 0.00 1009.9
20260508091738 -17 0.0 0.0 0.00 0.00 0.00 1009.9
20260508090641 -17 0.0 0.0 0.00 0.00 0.00 1009.9
20260508090047 4 0.0 0.0 0.00 0.00 0.00 73 1010.0
20260508085545 4 321 0.0 3.2 0.00 0.00 0.00 73 1009.9
20260508084953 4 321 0.0 3.2 0.00 0.00 0.00 73 1009.8
20260508084451 4 321 0.0 3.2 0.00 0.00 0.00 73 1009.9
20260508083451 4 278 0.0 3.2 0.00 0.00 0.00 73 1009.9
20260508082449 4 315 0.0 4.8 0.00 0.00 0.00 73 1009.9
20260508081946 4 290 0.0 3.2 0.00 0.00 0.00 73 1009.9
20260508081446 4 350 0.0 3.2 0.00 0.00 0.00 74 1009.8
20260508080946 4 339 0.0 6.4 0.00 0.00 0.00 74 1009.8
20260508080446 3 342 1.6 6.4 0.00 0.00 0.00 74 1009.7
20260508075946 3 316 0.0 4.8 0.00 0.00 0.00 74 1009.7
20260508075446 3 321 0.0 4.8 0.00 0.00 0.00 74 1009.5
20260508073944 3 328 0.0 4.8 0.00 0.00 0.00 74 1009.5
20260508073445 3 344 0.0 4.8 0.00 0.00 0.00 74 1009.4
20260508072945 3 310 0.0 4.8 0.00 0.00 0.00 74 1009.4
20260508072445 3 329 0.0 4.8 0.00 0.00 0.00 74 1009.4
20260508071444 3 338 0.0 3.2 0.00 0.00 0.00 74 1009.3
20260508070940 3 331 0.0 3.2 0.00 0.00 0.00 73 1009.3
20260508065940 3 337 1.6 4.8 0.00 0.00 0.00 72 1009.2
20260508065440 3 327 1.6 4.8 0.00 0.00 0.00 72 1009.2
20260508064940 3 320 0.0 4.8 0.00 0.00 0.00 72 1009.3
20260508064443 3 315 0.0 4.8 0.00 0.00 0.00 72 1009.2
20260508063440 3 329 0.0 4.8 0.00 0.00 0.00 72 1009.2
20260508062943 3 315 0.0 4.8 0.00 0.00 0.00 71 1009.2
20260508062436 3 315 0.0 3.2 0.00 0.00 0.00 71 1009.1
20260508061936 4 316 0.0 3.2 0.00 0.00 0.00 71 1009.1
20260508061436 4 316 0.0 1.6 0.00 0.00 0.00 70 1009.1
20260508060937 4 315 0.0 1.6 0.00 0.00 0.00 70 1009.1
20260508055936 4 315 0.0 1.6 0.00 0.00 0.00 70 1009.0
20260508055436 4 315 0.0 0.0 0.00 0.00 0.00 70 1009.0
20260508054936 4 315 0.0 0.0 0.00 0.00 0.00 70 1009.0
20260508053437 4 315 0.0 4.8 0.00 0.00 0.00 71 1008.9
20260508052936 4 321 0.0 4.8 0.00 0.00 0.00 71 1008.9
20260508052437 4 330 0.0 1.6 0.00 0.00 0.00 72 1009.0
20260508051936 4 330 0.0 1.6 0.00 0.00 0.00 72 1009.0
20260508051436 4 330 0.0 0.0 0.00 0.00 0.00 73 1009.0
20260508050936 4 330 0.0 1.6 0.00 0.00 0.00 73 1009.0
20260508050436 4 330 0.0 1.6 0.00 0.00 0.00 73 1009.0
20260508045934 4 330 0.0 1.6 0.00 0.00 0.00 73 1009.1
20260508045427 4 330 0.0 1.6 0.00 0.00 0.00 74 1009.2
20260508044924 4 330 0.0 3.2 0.00 0.00 0.00 74 1009.1
20260508043920 4 257 0.0 3.2 0.00 0.00 0.00 75 1009.2
20260508043420 4 300 0.0 1.6 0.00 0.00 0.00 76 1009.1
20260508042920 5 300 0.0 1.6 0.00 0.00 0.00 76 1009.1
20260508042420 5 300 0.0 1.6 0.00 0.00 0.00 76 1009.1
20260508041918 5 300 0.0 0.0 0.00 0.00 0.00 76 1009.1
20260508041415 5 298 0.0 1.6 0.00 0.00 0.00 76 1009.1
20260508040914 5 294 0.0 1.6 0.00 0.00 0.00 76 1009.1
20260508035412 5 262 0.0 1.6 0.00 0.00 0.00 76 1008.9
20260508034911 5 262 0.0 0.0 0.00 0.00 0.00 76 1008.9
20260508034411 5 238 0.0 0.0 0.00 0.00 0.00 76 1009.0
20260508033910 5 281 0.0 0.0 0.00 0.00 0.00 76 1009.0
20260508033408 5 292 0.0 3.2 0.00 0.00 0.00 75 1009.0
20260508032901 5 286 0.0 4.8 0.00 0.00 0.00 75 1008.9
20260508032355 6 300 0.0 4.8 0.00 0.00 0.00 75 1008.9
20260508031343 6 248 0.0 3.2 0.00 0.00 0.00 74 1008.9
20260508030837 6 240 0.0 4.8 0.00 0.00 0.00 74 1008.8
20260508030332 6 240 0.0 4.8 0.00 0.00 0.00 74 1008.8
20260508025320 6 196 0.0 6.4 0.00 0.00 0.00 73 1008.7
20260508024813 6 311 1.6 6.4 0.00 0.00 0.00 73 1008.8
20260508024307 6 247 0.0 4.8 0.00 0.00 0.00 73 1008.8
20260508023801 6 229 0.0 3.2 0.00 0.00 0.00 73 1008.8
20260508023258 6 231 0.0 9.7 0.00 0.00 0.00 72 1008.8
20260508022757 7 232 1.6 9.7 0.00 0.00 0.00 72 1008.8
20260508022257 7 239 1.6 6.4 0.00 0.00 0.00 72 1008.8
20260508021254 7 205 3.2 11.3 0.00 0.00 0.00 71 1008.8
20260508020254 7 228 3.2 14.5 0.00 0.00 0.00 71 1008.8
20260508015752 7 225 4.8 14.5 0.00 0.00 0.00 71 1008.8
20260508015249 7 216 4.8 11.3 0.00 0.00 0.00 71 1008.7
20260508014750 7 224 6.4 11.3 0.00 0.00 0.00 70 1008.7
20260508014251 7 215 6.4 12.9 0.00 0.00 0.00 70 1008.6
20260508013749 7 214 8.0 12.9 0.00 0.00 0.00 70 1008.6
20260508013250 7 234 4.8 11.3 0.00 0.00 0.00 69 1008.6
20260508012748 8 232 6.4 16.1 0.00 0.00 0.00 69 1008.5